Home > Time Zones > World Clock > Weather > Aktau > Past weeks

Flag for Kazakhstan Weather past 2 weeks in Aktau, Kazakhstan

Now
91 °F

Sunny.


Feels Like: 87 °F
Forecast: 71 / 89 °F
Wind: 17 mph from North

Location: Aktau

Current Time: Jul 4, 2015 at 5:36:30 PM

Latest Report: Jul 4, 2015 at 5:00 PM


Visibility: 10 mi

Pressure: 30.04 "Hg

Humidity: 14%

Dew point: 36 °F

Location of AktauLocation

Historic Weather in Aktau — Graph

°F

Aktau temperature yesterday

Maximum temperature yesterday: 102 °F (at 4:30 PM)
Minimum temperature yesterday: 77 °F (at 3:30 AM)
Average temperature yesterday: 87 °F

Past Weeks' High & Low Weather Summary

 TemperatureHumidityPressure
High106 °F (Jun 22, 12:00 PM)94% (Jun 29, 8:00 AM)30.04 "Hg (Jun 29, 8:00 AM)
Low66 °F (Jun 20, 6:30 AM)4% (Jun 25, 1:30 PM)29.53 "Hg (Jun 26, 7:00 PM)
Average87 °F35%29.75 "Hg
* Reported Jun 19 4:00 PM — Jul 4 4:30 PM, Aktau, Weather by CustomWeather, © 2015

Note: Actual official high and low records may vary slightly from our data, if they occured in-between our weather recording intervals... More about our weather records

Advertising

Aktau weather history for previous 24 hours

 ConditionsComfort  
Time TempWeatherWind HumidityBarometerVisibility
4:30 PM
Sat, Jul 4
91 °FSunny.20 mph14%30.01 "Hg10 mi
4:00 PM93 °FSunny.22 mph14%30.01 "Hg10 mi
3:30 PM93 °FSunny.20 mph14%30.01 "Hg10 mi
3:00 PM93 °FSunny.20 mph14%30.01 "Hg10 mi
2:30 PM93 °FSunny.17 mph15%30.01 "Hg10 mi
2:00 PM93 °FSunny.15 mph15%30.01 "Hg10 mi
1:30 PM93 °FSunny.20 mph14%30.01 "Hg10 mi
1:00 PM93 °FSunny.20 mph14%30.01 "Hg10 mi
12:30 PM93 °FSunny.17 mph14%30.01 "Hg10 mi
12:00 PM91 °FSunny.20 mph17%30.01 "Hg10 mi
11:30 AM91 °FSunny.20 mph17%29.98 "Hg10 mi
11:00 AM91 °FSunny.22 mph15%29.98 "Hg10 mi
10:30 AM91 °FSunny.17 mph16%29.98 "Hg10 mi
10:00 AM90 °FSunny.17 mph20%29.98 "Hg10 mi
9:30 AM90 °FSunny.17 mph20%29.98 "Hg10 mi
9:00 AM86 °FSunny.20 mph25%29.98 "Hg10 mi
8:30 AM86 °FSunny.17 mph29%29.98 "Hg10 mi
8:00 AM84 °FSunny.17 mph35%29.95 "Hg10 mi
7:30 AM82 °FClear.15 mph40%29.95 "Hg10 mi
7:00 AM81 °FClear.10 mph42%29.95 "Hg10 mi
6:30 AM81 °FClear.13 mph45%29.95 "Hg10 mi
6:00 AM81 °FClear.10 mph48%29.92 "Hg10 mi
5:30 AM81 °FClear.13 mph45%29.92 "Hg10 mi
5:00 AM81 °FClear.15 mph45%29.92 "Hg10 mi
4:30 AM82 °FClear.17 mph35%29.89 "Hg10 mi
4:00 AM81 °FClear.15 mph39%29.89 "Hg10 mi
3:30 AM81 °FClear.15 mph39%29.89 "Hg10 mi
3:00 AM81 °FClear.17 mph37%29.89 "Hg10 mi
2:30 AM82 °FClear.17 mph32%29.89 "Hg10 mi
2:00 AM82 °FClear.15 mph26%29.89 "Hg10 mi
1:30 AM82 °FClear.17 mph25%29.89 "Hg10 mi
1:00 AM82 °FPassing clouds.15 mph26%29.86 "HgN/A
12:30 AM84 °FPassing clouds.17 mph23%29.86 "HgN/A
12:00 AM84 °FPassing clouds.20 mph22%29.86 "HgN/A
11:30 PM
Fri, Jul 3
86 °FPassing clouds.22 mph22%29.86 "HgN/A
11:00 PM86 °FPartly sunny.22 mph25%29.86 "HgN/A
10:30 PM86 °FPartly sunny.24 mph25%29.86 "HgN/A
10:00 PM88 °FPartly sunny.24 mph24%29.83 "HgN/A
9:30 PM88 °FPartly sunny.24 mph24%29.83 "HgN/A
9:00 PM90 °FPartly sunny.24 mph21%29.80 "HgN/A
8:30 PM91 °FSunny.24 mph18%29.80 "Hg10 mi
8:00 PM93 °FSunny.26 mph16%29.80 "Hg10 mi
7:30 PM97 °FSunny.17 mph17%29.77 "Hg10 mi
7:00 PM97 °FSunny.6 mph19%29.77 "Hg10 mi
6:30 PM95 °FSunny.10 mph20%29.77 "Hg10 mi
6:00 PM91 °FSunny.15 mph24%29.80 "Hg10 mi
5:30 PM95 °FSunny.20 mph22%29.80 "Hg10 mi
5:00 PM99 °FSunny.20 mph18%29.80 "Hg10 mi
Weather by CustomWeather, © 2015

See weather overviewHow to use our weather pages